When you browse on this site, cookies collect data to enhance your experience and personalize the content and advertising you see.
Visit our Privacy Policy to learn more. By continuing to use the site, you agree to this use of cookies and data.
  • In Hungary
  • List of Countries
  • For 7 days
  • Water Temperature
  • Weather Map
  • News
  • Weather Widgets
  • user-avatar
    Login

    Hourly Weather Victoriaville

    Today, 21 November, Thursday

    Time Temperature Precipitation Wind Pressure Humidity
    00:00 -1°C° 0.2 mm 2 mps 750 mmHg 98%
    01:00 -2°C° 0.2 mm 2 mps 750 mmHg 98%
    02:00 -3°C° 0 mm 2 mps 750 mmHg 97%
    03:00 -4°C° 0 mm 2 mps 750 mmHg 96%
    04:00 -5°C° 0 mm 2 mps 750 mmHg 95%
    05:00 -4°C° 0 mm 1 mps 750 mmHg 95%
    06:00 -6°C° 0 mm 1 mps 750 mmHg 94%
    07:00 -7°C° 0 mm 1 mps 750 mmHg 94%
    08:00 -6°C° 0 mm 1 mps 750 mmHg 94%
    09:00 -3°C° 0 mm 1 mps 750 mmHg 93%
    10:00 -4°C° 0 mm 2 mps 750 mmHg 93%
    11:00 -3°C° 0 mm 2 mps 750 mmHg 94%
    12:00 -2°C° 0 mm 2 mps 749 mmHg 95%
    13:00 -1°C° 0 mm 2 mps 749 mmHg 95%
    14:00 -2°C° 0 mm 2 mps 748 mmHg 96%
    15:00 0°C° 0 mm 1 mps 748 mmHg 96%
    16:00 0°C° 0 mm 1 mps 747 mmHg 97%
    17:00 -1°C° 0 mm 1 mps 747 mmHg 96%
    18:00 -3°C° 0 mm 2 mps 747 mmHg 96%
    19:00 -3°C° 0 mm 2 mps 747 mmHg 96%
    20:00 -3°C° 0 mm 2 mps 746 mmHg 95%
    21:00 -3°C° 0 mm 2 mps 745 mmHg 94%
    22:00 -2°C° 0 mm 2 mps 744 mmHg 93%
    23:00 -2°C° 0.1 mm 3 mps 743 mmHg 93%

    Tomorrow, 22 November, Friday

    Time Temperature Precipitation Wind Pressure Humidity
    00:00 -1°C° 0.1 mm 3 mps 742 mmHg 92%
    01:00 -1°C° 0.1 mm 3 mps 740 mmHg 91%
    02:00 0°C° 0.4 mm 3 mps 739 mmHg 93%
    03:00 0°C° 0.4 mm 3 mps 738 mmHg 95%
    04:00 0°C° 0.4 mm 4 mps 738 mmHg 98%
    05:00 0°C° 0.3 mm 4 mps 736 mmHg 97%
    06:00 0°C° 0.3 mm 5 mps 735 mmHg 97%
    07:00 +1°C° 0.3 mm 5 mps 734 mmHg 97%
    08:00 +1°C° 0 mm 6 mps 733 mmHg 97%
    09:00 +1°C° 0 mm 6 mps 732 mmHg 97%
    10:00 +2°C° 0 mm 7 mps 732 mmHg 97%
    11:00 -1°C° 0.1 mm 8 mps 731 mmHg 94%
    12:00 -3°C° 0.1 mm 9 mps 731 mmHg 90%
    13:00 -4°C° 0.1 mm 11 mps 731 mmHg 86%
    14:00 -5°C° 0.1 mm 10 mps 731 mmHg 86%
    15:00 -8°C° 0.1 mm 9 mps 732 mmHg 85%
    16:00 -9°C° 0.1 mm 9 mps 733 mmHg 85%
    17:00 -8°C° 0.2 mm 8 mps 733 mmHg 85%
    18:00 -10°C° 0.2 mm 8 mps 733 mmHg 85%
    19:00 -10°C° 0.2 mm 8 mps 734 mmHg 86%
    20:00 -10°C° 0.3 mm 8 mps 734 mmHg 86%
    21:00 -10°C° 0.3 mm 8 mps 735 mmHg 86%
    22:00 -10°C° 0.3 mm 8 mps 736 mmHg 87%
    23:00 -9°C° 0.2 mm 7 mps 736 mmHg 84%

    Day after tomorrow, 23 November, Saturday

    Time Temperature Precipitation Wind Pressure Humidity
    00:00 -11°C° 0.2 mm 7 mps 737 mmHg 82%
    01:00 -11°C° 0.2 mm 7 mps 738 mmHg 79%
    02:00 -10°C° 0 mm 6 mps 739 mmHg 80%
    03:00 -10°C° 0 mm 6 mps 739 mmHg 81%
    04:00 -10°C° 0 mm 6 mps 740 mmHg 82%
    05:00 -10°C° 0 mm 5 mps 741 mmHg 83%
    06:00 -10°C° 0 mm 5 mps 741 mmHg 84%
    07:00 -11°C° 0 mm 5 mps 742 mmHg 84%
    08:00 -10°C° 0 mm 5 mps 742 mmHg 82%
    09:00 -8°C° 0 mm 5 mps 742 mmHg 80%
    10:00 -7°C° 0 mm 5 mps 743 mmHg 77%
    11:00 -7°C° 0 mm 4 mps 743 mmHg 78%
    12:00 -5°C° 0 mm 4 mps 742 mmHg 79%
    13:00 -4°C° 0 mm 4 mps 742 mmHg 79%
    14:00 -5°C° 0 mm 3 mps 742 mmHg 83%
    15:00 -5°C° 0 mm 3 mps 742 mmHg 87%
    16:00 -6°C° 0 mm 3 mps 742 mmHg 91%
    17:00 -5°C° 0 mm 2 mps 743 mmHg 92%
    18:00 -5°C° 0 mm 2 mps 743 mmHg 93%
    19:00 -6°C° 0 mm 2 mps 743 mmHg 94%
    20:00 -6°C° 0 mm 2 mps 743 mmHg 94%
    21:00 -6°C° 0 mm 2 mps 742 mmHg 94%
    22:00 -6°C° 0 mm 2 mps 742 mmHg 93%
    23:00 -6°C° 0 mm 2 mps 742 mmHg 92%

    24 November, Sunday

    Time Temperature Precipitation Wind Pressure Humidity
    00:00 -6°C° 0 mm 2 mps 741 mmHg 92%
    01:00 -6°C° 0 mm 2 mps 741 mmHg 91%
    02:00 -6°C° 0 mm 2 mps 740 mmHg 90%
    03:00 -5°C° 0 mm 2 mps 740 mmHg 89%
    04:00 -5°C° 0 mm 2 mps 740 mmHg 89%
    05:00 -5°C° 0 mm 2 mps 739 mmHg 89%
    06:00 -4°C° 0 mm 2 mps 739 mmHg 90%
    07:00 -4°C° 0 mm 2 mps 738 mmHg 91%
    08:00 -3°C° 0 mm 2 mps 738 mmHg 89%
    09:00 -2°C° 0 mm 2 mps 737 mmHg 87%
    10:00 -1°C° 0 mm 2 mps 737 mmHg 85%
    11:00 -1°C° 0 mm 2 mps 736 mmHg 86%
    12:00 +1°C° 0 mm 2 mps 736 mmHg 88%
    13:00 +1°C° 0 mm 2 mps 735 mmHg 90%
    14:00 +1°C° 0.4 mm 2 mps 735 mmHg 92%
    15:00 +1°C° 0.4 mm 2 mps 735 mmHg 94%
    16:00 +1°C° 0.4 mm 2 mps 734 mmHg 96%
    17:00 +1°C° 1.2 mm 2 mps 734 mmHg 96%
    18:00 +1°C° 1.2 mm 2 mps 734 mmHg 97%
    19:00 +1°C° 1.2 mm 2 mps 734 mmHg 97%
    20:00 +1°C° 2 mm 2 mps 733 mmHg 97%
    21:00 +1°C° 2 mm 2 mps 733 mmHg 97%
    22:00 0°C° 2 mm 3 mps 732 mmHg 97%
    23:00 +1°C° 1.3 mm 2 mps 732 mmHg 98%

    25 November, Monday

    Time Temperature Precipitation Wind Pressure Humidity
    00:00 +1°C° 1.3 mm 2 mps 731 mmHg 98%
    01:00 -1°C° 1.3 mm 2 mps 731 mmHg 98%
    02:00 -1°C° 0.9 mm 2 mps 731 mmHg 98%
    03:00 +1°C° 0.9 mm 1 mps 731 mmHg 98%
    04:00 0°C° 0.9 mm 1 mps 731 mmHg 98%
    05:00 0°C° 0.7 mm 1 mps 731 mmHg 98%
    06:00 0°C° 0.7 mm 1 mps 732 mmHg 98%
    07:00 0°C° 0.7 mm 1 mps 732 mmHg 98%
    08:00 0°C° 0.5 mm 1 mps 732 mmHg 98%
    09:00 0°C° 0.5 mm 1 mps 733 mmHg 98%
    10:00 +1°C° 0.5 mm 1 mps 733 mmHg 98%
    11:00 -1°C° 0.5 mm 2 mps 734 mmHg 98%
    12:00 -2°C° 0.5 mm 4 mps 735 mmHg 98%
    13:00 -2°C° 0.5 mm 5 mps 735 mmHg 99%
    14:00 -2°C° 0.2 mm 5 mps 736 mmHg 97%
    15:00 -1°C° 0.2 mm 5 mps 737 mmHg 95%
    16:00 -1°C° 0.2 mm 5 mps 738 mmHg 93%
    17:00 -2°C° 0 mm 5 mps 739 mmHg 92%
    18:00 -2°C° 0 mm 5 mps 740 mmHg 91%
    19:00 -2°C° 0 mm 4 mps 741 mmHg 91%
    20:00 -2°C° 0 mm 4 mps 741 mmHg 91%
    21:00 -2°C° 0 mm 3 mps 742 mmHg 92%
    22:00 -2°C° 0 mm 3 mps 743 mmHg 92%
    23:00 -2°C° 0 mm 3 mps 743 mmHg 93%

    26 November, Tuesday

    Time Temperature Precipitation Wind Pressure Humidity
    00:00 -3°C° 0 mm 2 mps 744 mmHg 94%
    01:00 -3°C° 0 mm 2 mps 744 mmHg 95%
    02:00 -3°C° 0 mm 2 mps 745 mmHg 95%
    03:00 0°C° 0 mm 1 mps 745 mmHg 96%
    04:00 0°C° 0 mm 1 mps 746 mmHg 96%
    05:00 0°C° 0.1 mm 1 mps 746 mmHg 96%
    06:00 +1°C° 0.1 mm 1 mps 747 mmHg 97%
    07:00 +1°C° 0.1 mm 1 mps 747 mmHg 98%
    08:00 +2°C° 0 mm 1 mps 747 mmHg 98%
    09:00 +2°C° 0 mm 1 mps 748 mmHg 98%
    10:00 +2°C° 0 mm 1 mps 748 mmHg 98%
    11:00 +3°C° 0 mm 1 mps 748 mmHg 98%
    12:00 +3°C° 0 mm 1 mps 748 mmHg 99%
    13:00 +4°C° 0 mm 1 mps 748 mmHg 99%
    14:00 +3°C° 0 mm 1 mps 749 mmHg 98%
    15:00 +3°C° 0 mm 1 mps 749 mmHg 98%
    16:00 +2°C° 0 mm 1 mps 749 mmHg 98%
    17:00 +2°C° 0 mm 1 mps 749 mmHg 98%
    18:00 +1°C° 0 mm 2 mps 750 mmHg 98%
    19:00 -1°C° 0 mm 2 mps 750 mmHg 98%
    20:00 -1°C° 0 mm 2 mps 750 mmHg 97%
    21:00 -1°C° 0 mm 2 mps 750 mmHg 97%
    22:00 -1°C° 0 mm 2 mps 750 mmHg 96%
    23:00 -1°C° 0 mm 2 mps 750 mmHg 94%
    Show more